User: anonymous   Login
Location: Unspecified
(0.0000°N, 0.0000°E)
Time: 01:42:19
(UTC+00:00)
Language:

Aussat K3 - Orbit

View from above orbital plane
View from above orbital plane
View from above satellite
View from above satellite

Ground track
Ground track

The orbit data is extracted from the following two-line orbital elements,

1 18350U 87078A   16044.09073325 -.00000193  00000-0  00000+0 0  9994
2 18350  14.3219  23.2693 0007393 266.0871 187.6681  0.98906310103160
Epoch (UTC): 13 February 2016 02:10:39
Eccentricity: 0.0007393
inclination: 14.3219°
perigee height: 36142 km
apogee height: 36205 km
right ascension of ascending node: 23.2693°
argument of perigee: 266.0871°
revolutions per day: 0.98906310
mean anomaly at epoch: 187.6681°
orbit number at epoch: 10316

The dashed part of the orbit path shows where the satellite is in the earth's shadow,  

DLR